Preview of NWS' New Version of Forecast
This preview is not operational and should not be used for support decisions.

Regional Weather Roundup (RWR)

Issued by National Weather Service (NWS)

                            
000
ASUS45 KCYS 210510
RWRWY 

WYOMING REGIONAL WEATHER ROUNDUP
NATIONAL WEATHER SERVICE CHEYENNE WY
1100 PM MDT TUE AUG 20 2019

NOTE:  "FAIR" INDICATES FEW OR NO CLOUDS BELOW 12,000 FEET
WITH NO SIGNIFICANT WEATHER AND/OR OBSTRUCTIONS TO VISIBILITY.

WYZ001-210600-
YELLOWSTONE NATIONAL PARK
  
CITY           SKY/WX    TMP DP  RH WIND       PRES   REMARKS
LK YELLOWSTONE   N/A     50  40  68 CALM      30.37R                  
W YELLOWSTONE  NOT AVBL                                               

$$
WYZ002>013-054>058-071-098>099-210600-
NORTHERN WYOMING
  
CITY           SKY/WX    TMP DP  RH WIND       PRES   REMARKS
JACKSON        FAIR      55  39  54 N6        30.22S                  
CODY           FAIR      67  52  58 N7        30.18S                  
GREYBULL       FAIR      78  52  40 W12       30.05R                  
WORLAND        FAIR      72  53  51 E3        30.09S                  
SHERIDAN       FAIR      65  53  65 W8        30.10S                  
BUFFALO        FAIR      71  54  54 S13G25    30.19F                  
GILLETTE       FAIR      71  54  54 SE21G28   30.15F                  
HULETT         FAIR      64  55  72 CALM      30.18F                  
NEWCASTLE      FAIR      70  50  49 SE6       30.17F                  

$$
WYZ014>020-022>026-101>103-210600-
CENTRAL WYOMING
  
CITY           SKY/WX    TMP DP  RH WIND       PRES   REMARKS
BIG PINEY      FAIR      57  29  34 SE3       30.26R                  
PINEDALE       FAIR      59  30  33 W6        30.27S                  
DUBOIS         FAIR      61  32  33 CALM      30.29R                  
LANDER         FAIR      73  39  29 NW7       30.17R                  
RIVERTON       FAIR      73  51  46 NE15G25   30.15R                  
CASPER         FAIR      68  50  52 NE9       30.16R                  
DOUGLAS        FAIR      62  53  72 E6        30.17F                  

$$
WYZ021-027>030-104>119-210600-
SOUTHERN WYOMING
  
CITY           SKY/WX    TMP DP  RH WIND       PRES   REMARKS
EVANSTON       FAIR      67  19  16 SE7       30.27S                  
KEMMERER       FAIR      63  27  25 NW6       30.28S                  
ROCK SPRINGS   FAIR      70  21  15 S10       30.22S                  
DIXON          FAIR      60  24  25 E14       30.24S                  
RAWLINS        FAIR      67  48  50 NE15      30.25R                  
SARATOGA       FAIR      61  32  33 S3        30.26F                  
LARAMIE        FAIR      61  54  77 NE20      30.33R                  
CHEYENNE       CLOUDY    63  54  72 N17G28    30.28R                  
TORRINGTON     CLOUDY    63  59  87 SE16      30.15F                  
PINE BLUFFS    CLOUDY    72  61  68 N6        30.22R                  

$$